Location: Mentone
(34.5413°N, 85.5351°W)
Time: 23:17:32
(UTC-05:00)

Amateur Radio Satellites - All Passes

Search period start: 01 August 2015 22:47
Search period end: 02 August 2015 22:47
Location: Mentone, 34.5413°N, 85.5351°W

Satellite Date Start Highest point End Downlink Frequencies (MHz)
Time Altitude Azimuth
POLYITAN 1 01 Aug 22:48:01 22:49:56 13° 91° (E) 22:52:04 437.675
DX 1 01 Aug 22:48:51 22:53:11 77° 258° (WSW) 22:57:31 434.975-435.025
AIST 1 01 Aug 22:51:21 22:55:16 36° 79° (ENE) 22:59:13
UNISAT 6 01 Aug 22:58:54 23:03:31 54° 100° (E) 23:08:08 437.425
POPSAT HIP 1 01 Aug 23:03:47 23:06:53 20° 94° (E) 23:10:06 437.405
PHONESAT 2.4 01 Aug 23:03:55 23:07:07 32° 8° (N) 23:10:19 2401.200-2431.200
BUGSAT 1 01 Aug 23:05:37 23:06:47 11° 91° (E) 23:08:14 437.445
VELOX 1 01 Aug 23:05:51 23:10:16 89° 248° (WSW) 23:14:42 145.980
QB50P2 01 Aug 23:11:17 23:14:49 26° 96° (E) 23:18:26 145.880/145.840
BEESAT 3 01 Aug 23:11:45 23:15:49 88° 119° (ESE) 23:19:55 437.485
SPROUT 01 Aug 23:14:07 23:16:41 16° 69° (ENE) 23:19:24 437.525
ESTCUBE 1 01 Aug 23:20:17 23:24:50 90° 81° (E) 23:29:24 437.505/2401.250
M-CUBED/EXP-1 PRIME 01 Aug 23:22:27 23:26:22 25° 295° (WNW) 23:30:05 437.505
TISAT 1 01 Aug 23:24:02 23:25:35 12° 68° (ENE) 23:27:21 437.305
Cosmos 2491 01 Aug 23:24:19 23:32:58 66° 80° (E) 23:41:37 435.465 / 435.565
DUCHIFAT 1 01 Aug 23:34:34 23:38:38 45° 99° (E) 23:42:44 145.980
50 SAT 01 Aug 23:38:03 23:41:21 26° 264° (W) 23:44:38 437.505
QB50P1 01 Aug 23:38:21 23:42:32 54° 100° (E) 23:46:42 145.935-145.965
NANOSAT C BR1 01 Aug 23:39:16 23:43:26 54° 100° (E) 23:47:37 145.865
YUBILEINY 01 Aug 23:41:12 23:49:04 41° 89° (E) 23:57:07 435.215
TIGRISAT 01 Aug 23:41:58 23:46:33 51° 285° (WNW) 23:51:06 435.000
ANTELSAT 01 Aug 23:44:10 23:48:40 46° 286° (WNW) 23:53:10 437.575/2403.000
AUBIESAT-1 01 Aug 23:52:10 23:54:50 15° 298° (WNW) 23:57:15 437.475
UKube-1 01 Aug 23:58:07 00:00:22 13° 268° (W) 00:02:22 .
O/OREOS (USA 219) 02 Aug 00:04:19 00:05:00 10° 100° (E) 00:05:59 437.305
AISAT 02 Aug 00:05:08 00:08:13 18° 267° (W) 00:11:07 437.250
AIST 2 02 Aug 00:10:48 00:14:58 60° 117° (ESE) 00:19:11 435.215
BEESAT 2 02 Aug 00:11:33 00:15:03 26° 306° (NW) 00:18:32 435.950
CUBEBUG 1 02 Aug 00:16:12 00:19:47 24° 265° (W) 00:23:17 437.445
VERMONT LUNAR 02 Aug 00:16:42 00:18:49 16° 216° (SW) 00:20:51 437.305
POLYITAN 1 02 Aug 00:22:00 00:26:04 42° 286° (WNW) 00:30:07 437.675
RS-15 02 Aug 00:25:32 00:33:10 19° 332° (NNW) 00:40:34 29.354- 29.394
AIST 1 02 Aug 00:30:24 00:32:37 14° 272° (W) 00:34:38
UNISAT 6 02 Aug 00:37:28 00:39:53 14° 292° (WNW) 00:42:02 437.425
BUGSAT 1 02 Aug 00:38:38 00:42:32 44° 286° (WNW) 00:46:26 437.445
POPSAT HIP 1 02 Aug 00:39:05 00:42:46 28° 288° (WNW) 00:46:22 437.405
SWISSCUBE 02 Aug 00:40:56 00:44:06 18° 68° (ENE) 00:47:26 437.505
PHONESAT 2.4 02 Aug 00:41:50 00:45:20 89° 23° (NNE) 00:48:50 2401.200-2431.200
QB50P2 02 Aug 00:47:16 00:50:36 22° 289° (WNW) 00:53:50 145.880/145.840
SPROUT 02 Aug 00:48:34 00:52:30 35° 263° (W) 00:56:25 437.525
TISAT 1 02 Aug 00:56:58 01:00:59 46° 261° (W) 01:05:00 437.305
ITUPSAT 1 02 Aug 01:01:27 01:05:24 27° 70° (ENE) 01:09:28 437.325
Oscar 19 02 Aug 01:02:46 01:05:45 16° 91° (E) 01:08:59 437.125/150
DUCHIFAT 1 02 Aug 01:12:05 01:14:05 13° 292° (WNW) 01:15:52 145.980
QB50P1 02 Aug 01:16:39 01:17:59 11° 293° (WNW) 01:19:03 145.935-145.965
NANOSAT C BR1 02 Aug 01:17:36 01:18:51 11° 293° (WNW) 01:19:52 145.865
Cosmos 2491 02 Aug 01:22:46 01:29:12 22° 276° (W) 01:35:11 435.465 / 435.565
YUBILEINY 02 Aug 01:38:01 01:45:57 37° 286° (WNW) 01:53:48 435.215
O/OREOS (USA 219) 02 Aug 01:39:35 01:43:58 55° 292° (WNW) 01:48:24 437.305
AIST 2 02 Aug 01:51:57 01:53:59 13° 313° (NW) 01:55:51 435.215
BEESAT 02 Aug 01:56:06 02:00:53 76° 257° (WSW) 02:05:42 436.000
Gurwin Techsat 1B 02 Aug 02:08:02 02:11:52 21° 93° (E) 02:15:52 435.225
STARS 02 Aug 02:08:06 02:09:30 12° 67° (ENE) 02:11:09 437.465
SWISSCUBE 02 Aug 02:17:09 02:21:41 40° 262° (W) 02:26:11 437.505
PHONESAT 2.4 02 Aug 02:20:46 02:23:00 16° 217° (SW) 02:25:08 2401.200-2431.200
JAS-2 02 Aug 02:24:30 02:28:48 16° 87° (E) 02:33:33 435.910
ITAMSAT 1 02 Aug 02:24:43 02:28:57 26° 95° (E) 02:33:16 435.822/435.867
KKS-1 02 Aug 02:34:13 02:38:21 41° 73° (ENE) 02:42:32 437.445
ITUPSAT 1 02 Aug 02:39:08 02:43:13 27° 264° (W) 02:47:14 437.325
Oscar 19 02 Aug 02:40:25 02:45:26 50° 287° (WNW) 02:50:26 437.125/150
Cosmos 2504 02 Aug 02:42:29 02:49:29 75° 94° (E) 02:57:02 435.465 / 435.565
RS-15 02 Aug 02:48:19 02:52:17 12° 8° (N) 02:56:31 29.354- 29.394
JUGNU 02 Aug 03:18:02 03:21:41 17° 172° (S) 03:25:21 437.505
MOZHAYETS 4 02 Aug 03:32:22 03:35:41 20° 70° (ENE) 03:39:09
HORYU 2 02 Aug 03:36:21 03:39:01 16° 92° (E) 03:41:52 437.375
ISS 02 Aug 03:37:14 03:40:25 49° 40° (NE) 03:43:35 145.825
STARS 02 Aug 03:41:16 03:45:31 53° 260° (W) 03:49:49 437.465
DANDE 02 Aug 03:44:07 03:46:11 16° 97° (E) 03:48:09 436.750
Gurwin Techsat 1B 02 Aug 03:47:04 03:52:02 41° 288° (WNW) 03:56:57 435.225
CUSAT 1 02 Aug 03:56:32 03:59:27 44° 98° (E) 04:02:01 437.405
ITAMSAT 1 02 Aug 04:03:55 04:08:28 31° 290° (WNW) 04:12:56 435.822/435.867
AO-7 02 Aug 04:06:22 04:14:07 43° 99° (E) 04:21:54 29.400- 29.500
JAS-2 02 Aug 04:06:51 04:14:47 85° 284° (WNW) 04:22:26 435.910
KKS-1 02 Aug 04:12:43 04:15:13 14° 268° (W) 04:17:30 437.445
GONETS M04 02 Aug 04:26:59 04:31:05 15° 82° (E) 04:35:51
Cosmos 2504 02 Aug 04:38:22 04:42:46 16° 295° (WNW) 04:46:53 435.465 / 435.565
RS-15 02 Aug 05:00:30 05:10:21 31° 41° (NE) 05:20:50 29.354- 29.394
JUGNU 02 Aug 05:05:59 05:10:02 19° 182° (S) 05:14:03 437.505
MOZHAYETS 4 02 Aug 05:08:30 05:12:43 33° 264° (W) 05:16:53
HORYU 2 02 Aug 05:11:38 05:15:51 39° 287° (WNW) 05:20:00 437.375
SRMSAT 02 Aug 05:11:42 05:15:21 17° 173° (S) 05:19:02 437.500
ISS 02 Aug 05:15:17 05:16:33 12° 232° (SW) 05:17:42 145.825
DANDE 02 Aug 05:27:57 05:29:13 12° 283° (WNW) 05:30:16 436.750
CUBESAT XI-V 02 Aug 05:28:29 05:32:27 29° 72° (ENE) 05:36:31 437.345
CUTE-I 02 Aug 05:41:08 05:42:24 11° 89° (E) 05:44:05 437.470
JAS-2 02 Aug 05:54:12 05:58:51 16° 299° (WNW) 06:03:01 435.910
AO-7 02 Aug 05:59:17 06:06:50 38° 296° (WNW) 06:14:12 29.400- 29.500
PRISM 02 Aug 06:08:26 06:10:58 16° 69° (ENE) 06:13:40 437.425
GONETS M04 02 Aug 06:18:15 06:26:59 87° 276° (W) 06:35:43
Cubesat XI-IV 02 Aug 06:22:39 06:27:21 32° 96° (E) 06:32:07 437.490
STRAND 1 02 Aug 06:22:46 06:27:21 35° 71° (ENE) 06:32:01 437.568
JUGNU 02 Aug 06:55:25 06:58:21 14° 192° (SSW) 07:01:12 437.505
SRMSAT 02 Aug 06:59:50 07:03:51 19° 183° (S) 07:07:50 437.500
CUBESAT XI-V 02 Aug 07:06:08 07:09:54 23° 266° (W) 07:13:33 437.345
RS-15 02 Aug 07:12:20 07:24:14 80° 244° (WSW) 07:36:28 29.354- 29.394
Cosmos 2499 02 Aug 07:15:16 07:22:12 49° 90° (E) 07:29:45 435.465 / 435.565
CUTE-I 02 Aug 07:17:48 07:23:07 72° 286° (WNW) 07:28:23 437.470
PCSat 02 Aug 07:23:33 07:25:30 12° 105° (ESE) 07:27:48 145.827
BEESAT 3 02 Aug 07:34:19 07:37:07 18° 50° (NE) 07:40:00 437.485
PRISM 02 Aug 07:42:20 07:46:10 34° 262° (W) 07:49:58 437.425
STRAND 1 02 Aug 08:02:32 08:06:39 23° 266° (W) 08:10:37 437.568
Cubesat XI-IV 02 Aug 08:02:55 08:07:21 27° 291° (WNW) 08:11:40 437.490
GONETS M04 02 Aug 08:20:34 08:25:19 15° 297° (WNW) 08:29:26
DOVE 4 02 Aug 08:21:45 08:25:35 25° 95° (E) 08:29:42 437.250
SEEDS 02 Aug 08:21:57 08:23:43 13° 91° (E) 08:25:43 437.485
HO-68 02 Aug 08:23:18 08:29:11 28° 95° (E) 08:35:16 435.675
SO-50 02 Aug 08:24:09 08:28:30 39° 114° (ESE) 08:33:01 436.795
CINEMA 3 02 Aug 08:25:13 08:26:16 11° 90° (E) 08:27:41 145.822/145.860
CUTE 1.7 + AOD 2 02 Aug 08:25:43 08:28:39 18° 93° (E) 08:31:43 437.475
M-CUBED/EXP-1 PRIME 02 Aug 08:32:41 08:35:42 21° 64° (ENE) 08:39:02 437.505
BEESAT 2 02 Aug 08:33:04 08:37:05 61° 59° (ENE) 08:41:02 435.950
BRITE-PL 02 Aug 08:33:20 08:37:49 84° 281° (W) 08:42:39 437.365/2234.400
CANX-2 02 Aug 08:33:46 08:37:22 26° 95° (E) 08:40:59 2200.000
AIST 2 02 Aug 08:36:59 08:39:23 15° 48° (NE) 08:41:56 435.215
GOMX 1 02 Aug 08:38:14 08:42:49 63° 101° (E) 08:47:44 467.674
AAUSAT CUBESAT 2 02 Aug 08:44:49 08:47:14 15° 92° (E) 08:49:50 437.432
SRMSAT 02 Aug 08:49:31 08:52:20 13° 192° (SSW) 08:55:03 437.500
AUBIESAT-1 02 Aug 09:00:06 09:03:48 37° 68° (ENE) 09:07:50 437.475
PCSat 02 Aug 09:03:00 09:08:24 70° 298° (WNW) 09:13:49 145.827
Cosmos 2499 02 Aug 09:09:39 09:15:47 26° 290° (WNW) 09:22:05 435.465 / 435.565
BEESAT 3 02 Aug 09:11:32 09:15:10 32° 247° (WSW) 09:18:42 437.485
RS-15 02 Aug 09:28:34 09:35:27 16° 258° (WSW) 09:41:16 29.354- 29.394
ZACube-1 02 Aug 09:38:12 09:41:20 19° 93° (E) 09:44:38 437.345
COMPASS 1 02 Aug 09:38:28 09:42:42 89° 98° (E) 09:46:54 437.405
UNISAT 6 02 Aug 09:54:52 09:58:36 30° 72° (ENE) 10:02:30 437.425
SEEDS 02 Aug 09:55:43 09:59:46 42° 286° (WNW) 10:03:46 437.485
DELFI C3 02 Aug 09:56:36 10:00:10 30° 96° (E) 10:03:45 145.870
YUBILEINY 02 Aug 09:57:13 10:01:58 16° 64° (ENE) 10:07:20 435.215
FUNcube-1 02 Aug 09:58:37 10:02:38 31° 96° (E) 10:06:44 145.935
CINEMA 3 02 Aug 09:59:09 10:03:52 65° 284° (WNW) 10:08:44 145.822/145.860
DOVE 4 02 Aug 09:59:15 10:03:18 29° 287° (WNW) 10:07:30 437.250
CUTE 1.7 + AOD 2 02 Aug 10:00:50 10:04:38 30° 287° (WNW) 10:08:20 437.475
QB50P2 02 Aug 10:02:27 10:04:17 13° 68° (ENE) 10:06:19 145.880/145.840
UWE-3 02 Aug 10:03:47 10:08:17 49° 99° (E) 10:12:50 435.000/436.395/437.385
SO-50 02 Aug 10:05:25 10:09:12 22° 311° (NW) 10:12:59 436.795
M-CUBED/EXP-1 PRIME 02 Aug 10:06:55 10:10:20 27° 261° (W) 10:13:58 437.505
Oscar 11 02 Aug 10:09:05 10:13:26 71° 101° (E) 10:17:45 145.826/435.025
CANX-2 02 Aug 10:09:49 10:13:10 22° 289° (WNW) 10:16:23 2200.000
HO-68 02 Aug 10:10:18 10:17:09 48° 291° (WNW) 10:23:55 435.675
AIST 2 02 Aug 10:14:15 10:18:15 45° 245° (WSW) 10:22:09 435.215
HUMSAT D 02 Aug 10:14:53 10:17:49 18° 93° (E) 10:20:51 437.325/437.525
O/OREOS (USA 219) 02 Aug 10:15:28 10:17:38 14° 57° (ENE) 10:20:03 437.305
GOMX 1 02 Aug 10:18:57 10:20:37 11° 291° (WNW) 10:22:01 467.674
AAUSAT CUBESAT 2 02 Aug 10:19:10 10:22:59 34° 287° (WNW) 10:26:44 437.432
CUBEBUG 2 02 Aug 10:21:49 10:26:30 79° 283° (WNW) 10:31:15 437.445
DUCHIFAT 1 02 Aug 10:24:08 10:27:16 22° 71° (ENE) 10:30:32 145.980
QB50P1 02 Aug 10:28:06 10:31:31 25° 72° (ENE) 10:35:01 145.935-145.965
NANOSAT C BR1 02 Aug 10:28:48 10:32:13 25° 72° (ENE) 10:35:42 145.865
Cosmos 2491 02 Aug 10:30:24 10:33:27 13° 80° (E) 10:37:18 435.465 / 435.565
AUBIESAT-1 02 Aug 10:36:20 10:38:46 15° 265° (W) 10:41:08 437.475
TIGRISAT 02 Aug 10:37:01 10:41:19 89° 257° (WSW) 10:45:46 435.000
ANTELSAT 02 Aug 10:39:22 10:43:41 80° 258° (WSW) 10:48:08 437.575/2403.000
DX 1 02 Aug 10:41:15 10:44:42 23° 95° (E) 10:48:13 434.975-435.025
VELOX 1 02 Aug 11:00:29 11:03:53 22° 95° (E) 11:07:23 145.980
POLYITAN 1 02 Aug 11:11:02 11:15:14 89° 86° (E) 11:19:28 437.675
ZACube-1 02 Aug 11:13:37 11:17:47 34° 287° (WNW) 11:21:54 437.345
50 SAT 02 Aug 11:16:11 11:19:58 41° 98° (E) 11:23:44 437.505
ESTCUBE 1 02 Aug 11:17:09 11:20:46 24° 95° (E) 11:24:27 437.505/2401.250
AIST 1 02 Aug 11:17:20 11:20:56 26° 91° (E) 11:24:34
BUGSAT 1 02 Aug 11:24:48 11:28:51 75° 77° (ENE) 11:32:53 437.445
POPSAT HIP 1 02 Aug 11:27:40 11:31:47 58° 260° (W) 11:35:56 437.405
UNISAT 6 02 Aug 11:32:15 11:35:27 19° 267° (W) 11:38:35 437.425
DELFI C3 02 Aug 11:32:20 11:35:01 17° 290° (WNW) 11:37:32 145.870
FUNcube-1 02 Aug 11:35:18 11:38:47 21° 289° (WNW) 11:42:10 145.935
QB50P2 02 Aug 11:35:49 11:39:50 43° 261° (W) 11:43:52 145.880/145.840
UWE-3 02 Aug 11:41:52 11:44:26 14° 292° (WNW) 11:46:48 435.000/436.395/437.385
UKube-1 02 Aug 11:46:30 11:50:47 61° 284° (WNW) 11:55:01 .
HUMSAT D 02 Aug 11:49:44 11:53:36 31° 287° (WNW) 11:57:25 437.325/437.525
YUBILEINY 02 Aug 11:51:19 12:00:12 89° 263° (W) 12:09:02 435.215
O/OREOS (USA 219) 02 Aug 11:53:00 11:57:28 52° 253° (WSW) 12:01:55 437.305
AISAT 02 Aug 11:57:29 12:01:54 72° 284° (WNW) 12:06:18 437.250
DUCHIFAT 1 02 Aug 11:59:30 12:02:58 25° 265° (W) 12:06:23 145.980
QB50P1 02 Aug 12:04:06 12:07:22 21° 266° (W) 12:10:31 145.935-145.965
NANOSAT C BR1 02 Aug 12:04:47 12:08:01 21° 266° (W) 12:11:10 145.865
CUBEBUG 1 02 Aug 12:07:27 12:11:47 80° 102° (ESE) 12:16:07 437.445
Oscar 19 02 Aug 12:16:37 12:19:42 17° 67° (ENE) 12:23:02 437.125/150
DX 1 02 Aug 12:17:19 12:20:54 25° 289° (WNW) 12:24:22 434.975-435.025
Cosmos 2491 02 Aug 12:20:28 12:29:15 84° 95° (E) 12:38:02 435.465 / 435.565
Cosmos 2504 02 Aug 12:33:24 12:39:14 21° 68° (ENE) 12:45:33 435.465 / 435.565
VELOX 1 02 Aug 12:36:41 12:40:25 27° 289° (WNW) 12:44:04 145.980
SPROUT 02 Aug 12:38:15 12:42:25 49° 99° (E) 12:46:36 437.525
TISAT 1 02 Aug 12:44:50 12:48:38 33° 97° (E) 12:52:29 437.305
50 SAT 02 Aug 12:52:31 12:54:11 12° 291° (WNW) 12:55:39 437.505
ESTCUBE 1 02 Aug 12:53:51 12:57:35 25° 289° (WNW) 13:01:11 437.505/2401.250
AIST 1 02 Aug 12:55:18 12:58:35 20° 285° (WNW) 13:01:44
Gurwin Techsat 1B 02 Aug 13:25:46 13:29:54 24° 69° (ENE) 13:34:10 435.225
ITAMSAT 1 02 Aug 13:39:19 13:43:41 29° 70° (ENE) 13:48:10 435.822/435.867
YUBILEINY 02 Aug 13:51:30 13:55:59 14° 279° (W) 13:59:47 435.215
Oscar 19 02 Aug 13:53:46 13:58:43 49° 261° (W) 14:03:41 437.125/150
BEESAT 02 Aug 14:00:09 14:04:31 36° 97° (E) 14:08:54 436.000
JAS-2 02 Aug 14:15:54 14:20:57 29° 66° (ENE) 14:26:41 435.910
SPROUT 02 Aug 14:16:16 14:18:07 12° 292° (WNW) 14:19:45 437.525
SWISSCUBE 02 Aug 14:20:39 14:25:25 68° 101° (ESE) 14:30:09 437.505
TISAT 1 02 Aug 14:21:23 14:24:10 17° 291° (WNW) 14:26:48 437.305
Cosmos 2491 02 Aug 14:21:46 14:27:23 17° 295° (WNW) 14:32:26 435.465 / 435.565
Cosmos 2504 02 Aug 14:23:48 14:32:18 74° 266° (W) 14:40:52 435.465 / 435.565
DANDE 02 Aug 14:24:20 14:26:33 14° 77° (ENE) 14:29:20 436.750
KKS-1 02 Aug 14:31:35 14:32:15 10° 90° (E) 14:33:15 437.445
CUSAT 1 02 Aug 14:32:30 14:36:36 32° 80° (E) 14:41:54 437.405
ITUPSAT 1 02 Aug 14:42:21 14:47:09 78° 285° (WNW) 14:51:54 437.325
AO-7 02 Aug 15:01:25 15:09:06 44° 66° (ENE) 15:16:54 29.400- 29.500
Gurwin Techsat 1B 02 Aug 15:04:49 15:09:42 36° 263° (W) 15:14:33 435.225
ITAMSAT 1 02 Aug 15:18:37 15:23:09 29° 264° (W) 15:27:37 435.822/435.867
STARS 02 Aug 15:34:28 15:38:30 35° 98° (E) 15:42:35 437.465
BEESAT 02 Aug 15:38:39 15:42:08 20° 291° (WNW) 15:45:28 436.000
JAS-2 02 Aug 16:00:12 16:05:48 40° 265° (W) 16:12:04 435.910
SWISSCUBE 02 Aug 16:01:21 16:02:45 11° 295° (WNW) 16:03:51 437.505
KKS-1 02 Aug 16:04:55 16:09:18 57° 286° (WNW) 16:13:41 437.445
DANDE 02 Aug 16:05:32 16:09:32 42° 263° (W) 16:14:47 436.750
HORYU 2 02 Aug 16:05:52 16:10:16 66° 258° (WSW) 16:14:43 437.375
CUSAT 1 02 Aug 16:15:14 16:19:06 24° 264° (W) 16:23:40 437.405
Cosmos 2504 02 Aug 16:20:57 16:23:25 11° 280° (W) 16:25:03 435.465 / 435.565
GONETS M04 02 Aug 16:33:14 16:41:11 40° 75° (ENE) 16:49:18
VERMONT LUNAR 02 Aug 16:45:46 16:48:42 36° 149° (SSE) 16:51:40 437.305
AO-7 02 Aug 16:54:18 17:01:58 38° 262° (W) 17:09:30 29.400- 29.500
CUTE-I 02 Aug 16:59:01 17:01:48 15° 66° (ENE) 17:04:50 437.470
SO-50 02 Aug 16:59:47 17:02:55 17° 46° (NE) 17:06:10 436.795
MOZHAYETS 4 02 Aug 17:06:36 17:11:14 76° 102° (ESE) 17:15:49
STARS 02 Aug 17:11:40 17:14:43 18° 291° (WNW) 17:17:36 437.465
Cosmos 2499 02 Aug 17:11:45 17:16:20 16° 64° (ENE) 17:21:34 435.465 / 435.565
Cubesat XI-IV 02 Aug 17:41:08 17:46:03 39° 71° (ENE) 17:51:01 437.490
PCSat 02 Aug 17:54:32 17:59:41 43° 59° (ENE) 18:04:51 145.827
VERMONT LUNAR 02 Aug 18:22:20 18:25:23 43° 344° (NNW) 18:28:27 437.305
GONETS M04 02 Aug 18:30:06 18:38:02 39° 272° (W) 18:45:48
CUTE-I 02 Aug 18:36:07 18:41:25 62° 259° (W) 18:46:44 437.470
STRAND 1 02 Aug 18:38:03 18:40:51 15° 91° (E) 18:43:55 437.568
SO-50 02 Aug 18:39:04 18:43:55 58° 244° (WSW) 18:48:37 436.795
HO-68 02 Aug 18:50:49 18:54:19 15° 59° (ENE) 18:58:14 435.675
Cosmos 2499 02 Aug 19:02:03 19:10:57 86° 85° (E) 19:19:48 435.465 / 435.565
PHONESAT 2.4 02 Aug 19:02:18 19:05:44 59° 152° (SSE) 19:09:13 2401.200-2431.200
CUBESAT XI-V 02 Aug 19:05:12 19:09:48 70° 284° (WNW) 19:14:21 437.345
Cubesat XI-IV 02 Aug 19:22:05 19:26:17 22° 266° (W) 19:30:21 437.490
RS-15 02 Aug 19:23:47 19:30:30 20° 103° (ESE) 19:38:04 29.354- 29.394
CANX-2 02 Aug 19:24:56 19:26:45 13° 68° (ENE) 19:28:48 2200.000
DOVE 4 02 Aug 19:25:57 19:28:05 14° 69° (ENE) 19:30:24 437.250
PRISM 02 Aug 19:27:46 19:31:37 39° 99° (E) 19:35:28 437.425
PCSat 02 Aug 19:38:46 19:42:50 21° 253° (WSW) 19:46:43 145.827
BRITE-PL 02 Aug 19:41:14 19:45:40 75° 76° (ENE) 19:49:52 437.365/2234.400
GOMX 1 02 Aug 19:43:47 19:47:46 41° 75° (ENE) 19:51:42 467.674
VERMONT LUNAR 02 Aug 19:59:47 20:02:31 26° 0° (N) 20:05:16 437.305
ISS 02 Aug 20:13:51 20:17:05 71° 317° (NW) 20:20:20 145.825
STRAND 1 02 Aug 20:15:28 20:20:25 50° 287° (WNW) 20:25:18 437.568
COMPASS 1 02 Aug 20:26:05 20:29:57 37° 74° (ENE) 20:33:52 437.405
HO-68 02 Aug 20:34:05 20:41:14 90° 37° (NE) 20:48:26 435.675
PHONESAT 2.4 02 Aug 20:40:31 20:43:49 38° 348° (NNW) 20:47:08 2401.200-2431.200
DELFI C3 02 Aug 20:42:03 20:43:41 12° 69° (ENE) 20:45:31 145.870
SEEDS 02 Aug 20:43:37 20:47:51 81° 77° (ENE) 20:52:08 437.485
CUTE 1.7 + AOD 2 02 Aug 20:49:22 20:53:36 67° 259° (W) 20:57:52 437.475
FUNcube-1 02 Aug 20:52:22 20:54:44 15° 69° (ENE) 20:57:18 145.935
CINEMA 3 02 Aug 20:57:44 21:01:51 76° 77° (ENE) 21:06:04 145.822/145.860
Cosmos 2499 02 Aug 20:57:50 21:03:12 17° 278° (W) 21:07:58 435.465 / 435.565
CANX-2 02 Aug 20:58:12 21:02:18 46° 261° (W) 21:06:27 2200.000
UWE-3 02 Aug 20:58:15 21:01:36 24° 71° (ENE) 21:05:07 435.000/436.395/437.385
Oscar 11 02 Aug 21:00:29 21:04:22 34° 73° (ENE) 21:08:20 145.826/435.025
DOVE 4 02 Aug 21:01:45 21:05:37 36° 263° (W) 21:09:26 437.250
PRISM 02 Aug 21:04:38 21:06:44 13° 292° (WNW) 21:08:39 437.425
AAUSAT CUBESAT 2 02 Aug 21:05:35 21:09:47 84° 257° (WSW) 21:14:01 437.432
CUBEBUG 2 02 Aug 21:16:46 21:20:49 53° 75° (ENE) 21:24:59 437.445
GOMX 1 02 Aug 21:24:26 21:26:12 12° 269° (W) 21:27:42 467.674
RS-15 02 Aug 21:30:48 21:41:42 84° 299° (WNW) 21:53:00 29.354- 29.394
DX 1 02 Aug 21:34:49 21:36:57 14° 68° (ENE) 21:39:18 434.975-435.025
VERMONT LUNAR 02 Aug 21:36:34 21:39:38 46° 17° (NNE) 21:42:42 437.305
M-CUBED/EXP-1 PRIME 02 Aug 21:50:39 21:54:54 32° 100° (E) 21:59:01 437.505
ISS 02 Aug 21:53:25 21:54:03 10° 336° (NNW) 21:54:37 145.825
VELOX 1 02 Aug 21:56:01 21:58:09 14° 68° (ENE) 22:00:30 145.980
50 SAT 02 Aug 21:57:53 21:59:59 15° 70° (ENE) 22:02:16 437.505
COMPASS 1 02 Aug 22:03:20 22:05:47 15° 268° (W) 22:08:03 437.405
ZACube-1 02 Aug 22:05:41 22:09:50 65° 259° (W) 22:14:05 437.345
ESTCUBE 1 02 Aug 22:14:22 22:17:01 16° 69° (ENE) 22:19:51 437.505/2401.250
DELFI C3 02 Aug 22:14:32 22:18:24 42° 262° (W) 22:22:17 145.870
AUBIESAT-1 02 Aug 22:17:58 22:22:37 55° 104° (ESE) 22:27:03 437.475
PHONESAT 2.4 02 Aug 22:19:07 22:22:16 30° 5° (N) 22:25:26 2401.200-2431.200
BEESAT 2 02 Aug 22:23:30 22:26:54 26° 113° (ESE) 22:30:24 435.950
HO-68 02 Aug 22:26:53 22:29:59 12° 272° (W) 22:32:30 435.675
FUNcube-1 02 Aug 22:26:54 22:30:46 36° 263° (W) 22:34:42 145.935
TIGRISAT 02 Aug 22:32:30 22:36:24 26° 95° (E) 22:40:22 435.000
UWE-3 02 Aug 22:34:49 22:38:07 22° 266° (W) 22:41:22 435.000/436.395/437.385
ANTELSAT 02 Aug 22:34:59 22:39:03 29° 96° (E) 22:43:10 437.575/2403.000
HUMSAT D 02 Aug 22:37:17 22:41:24 71° 258° (WSW) 22:45:35 437.325/437.525
UKube-1 02 Aug 22:37:30 22:41:47 70° 76° (ENE) 22:46:06 .
Oscar 11 02 Aug 22:37:48 22:40:41 17° 268° (W) 22:43:24 145.826/435.025
